+ View the NASA Portal
+ Center for Near-Earth Object Studies
IMPORTANT:
The SSD Announcement email list is now available. Major changes are coming in the near future, including possible hostname and/or URL changes. To be notified of such changes, subscribe to this email list.
Please visit
this page
for more details.
Don't show this message again
JPL Small-Body Database Browser
Search:
[
help
]
357429 (2003 YW133)
Classification:
Main-belt Asteroid
SPK-ID:
2357429
[
Ephemeris
|
Orbit Diagram
|
Orbital Elements
|
Mission Design
|
Physical Parameters
|
Discovery Circumstances
|
Close-Approach Data
]
[ show orbit diagram ]
Orbital Elements at Epoch 2458600.5 (2019-Apr-27.0) TDB
Reference:
JPL 9
(heliocentric ecliptic J2000)
Element
Value
Uncertainty (1-sigma)
Units
e
.08637989403621874
6.4961e-08
a
2.626235460184956
2.9703e-08
au
q
2.399381519420019
1.7553e-07
au
i
18.18320469405269
1.7155e-05
deg
node
316.4573325751627
2.2061e-05
deg
peri
120.7132985631425
0.00012687
deg
M
241.4702122271592
0.00012133
deg
t
p
2459112.327862993194
(2020-Sep-19.82786299)
0.00052598
TDB
period
1554.529322457535
4.26
2.6373e-05
7.221e-08
d
yr
n
.23158135057297
3.9288e-09
deg/d
Q
2.853089400949893
3.2269e-08
au
Orbit Determination Parameters
# obs. used (total)
172
data-arc span
7182 days (19.66 yr)
first obs. used
2000-02-02
last obs. used
2019-10-02
planetary ephem.
DE431
SB-pert. ephem.
SB431-N16
condition code
0
norm. resid. RMS
.52194
source
ORB
producer
Otto Matic
solution date
2019-Nov-08 11:08:01
Additional Information
Earth MOID
= 1.45994 au
Jupiter MOID
= 2.32966 au
T_jup
= 3.326
[ show covariance matrix ]
[
Ephemeris
|
Orbit Diagram
|
Orbital Elements
|
Mission Design
|
Physical Parameters
|
Discovery Circumstances
|
Close-Approach Data
]
Physical Parameter Table
Parameter
Symbol
Value
Units
Sigma
Reference
Notes
absolute magnitude
H
16.3
n/a
MPO402437
357429 (2003 YW133)
Discovered 2003-Dec-28 by LINEAR at Socorro
Reference:
20130327/Numbers.arc
Last Updated:
2013-03-29
[ show close-approach data ]
[
Ephemeris
|
Orbit Diagram
|
Orbital Elements
|
Mission Design
|
Physical Parameters
|
Discovery Circumstances
|
Close-Approach Data
]
2019-Dec-10 16:40 UT
(server date/time)
Site Manager:
Ryan S. Park
Webmaster
:
Alan B. Chamberlin